Content
SEND FEEDBACK

Daily
Averages
Monthly
Summary
United States of America

PONCHA SPRINGS, COLORADO


Home > North America > United States > Colorado
Elevation: 7201 feet     Latitude: 38 32N     Longitude: 106 00W

WEATHER
 
SELECT A DAY
Number of Records: 83,840;   Date Range: 10/4/10 - 7/21/14
 
SHARE

PRINT THIS DATA

[ ← Previous Day ]
WEATHER ALMANAC - JANUARY 31, 2013
[ Next Day → ]
[ °C ]   °F
Weather ElementAverageHighLow
Temperature35 °F43 °F (1:55 pm)29.7 °F (2:35 am)
Dewpoint10.4 °F13.1 °F (3:55 am)5.9 °F (7:35 am)
Humidity36.7 %49 % (3:55 am)26 % (3:55 pm)
Barometer30.17 in30.26 in (9:15 pm)30.05 in (12:35 am)
Wind Speed17.6 mph33.4 mph (12:35 pm)
Wind Gust54.1 mph (9:35 am)
Weather ElementAverage
Visibility10 mi
Wind DirectionWSW (251.8 °)

Weather ElementTotal
Precipitation---
Heating Degree Days28.7 (Base 65)
Averaged from 66 records on January 31, 2013
WEATHER CONDITIONS BREAKOUT
WIND DIRECTION BREAKOUT
WEATHER BY HOUR - JANUARY 31, 2013
[ °C ]   °F
Local TimeTemperatureDewpointHumidityBarometerVisibilityWind DirectionWind SpeedGust SpeedPrecipitationEventsConditions
12:35 AM30.7 °F10.2 °F42 %30.05 in10.0 miWest (260°)26.5 mph35.7 mphClear
12:55 AM30.7 °F10.4 °F43 %30.05 in10.0 miWest (260°)29.9 mph36.8 mphClear
1:15 AM30.7 °F10.9 °F44 %30.06 in10.0 miWest (260°)26.5 mph38.0 mphClear
1:35 AM30.9 °F11.8 °F45 %30.07 in10.0 miWest (260°)24.2 mph40.3 mphClear
1:55 AM30.7 °F12.2 °F46 %30.09 in10.0 miWest (260°)21.9 mph29.9 mphClear
2:15 AM31.1 °F11.8 °F45 %30.09 in10.0 miSW (230°)8.1 mph23.0 mphScattered Clouds
2:35 AM29.7 °F11.3 °F46 %30.09 in10.0 miSSW (200°)6.9 mphMostly Cloudy
2:55 AM30.2 °F12.6 °F48 %30.09 in10.0 miWest (260°)10.4 mphMostly Cloudy
3:15 AM29.8 °F12.2 °F48 %30.09 in10.0 miWSW (250°)13.8 mph18.4 mphMostly Cloudy
3:35 AM30.2 °F12.7 °F48 %30.08 in10.0 miWSW (250°)17.3 mph25.3 mphMostly Cloudy
3:55 AM30.0 °F13.1 °F49 %30.08 in10.0 miWSW (250°)18.4 mph26.5 mphOvercast
4:15 AM30.0 °F12.4 °F48 %30.07 in10.0 miWSW (250°)13.8 mph24.2 mphOvercast
4:35 AM29.8 °F12.9 °F49 %30.08 in10.0 miWest (260°)18.4 mph27.6 mphScattered Clouds
4:55 AM30.7 °F12.2 °F46 %30.10 in10.0 miWest (260°)20.7 mph27.6 mphMostly Cloudy
5:15 AM30.9 °F12.2 °F46 %30.10 in10.0 miWSW (250°)13.8 mph21.9 mphOvercast
5:35 AM31.1 °F10.9 °F43 %30.09 in10.0 miWSW (250°)17.3 mph24.2 mphMostly Cloudy
5:55 AM31.3 °F9.5 °F40 %30.10 in10.0 miWest (260°)13.8 mph21.9 mphClear
6:15 AM31.1 °F7.9 °F38 %30.12 in10.0 miWSW (240°)10.4 mphClear
6:35 AM31.1 °F8.6 °F39 %30.11 in10.0 miSW (230°)12.7 mph24.2 mphClear
6:55 AM31.5 °F7.7 °F37 %30.11 in10.0 miSW (230°)16.1 mph25.3 mphClear
7:15 AM31.3 °F7.7 °F37 %30.11 in10.0 miSW (230°)17.3 mph25.3 mphClear
7:35 AM32.5 °F5.9 °F33 %30.11 in10.0 miWSW (250°)10.4 mph29.9 mphClear
7:55 AM33.6 °F5.9 °F31 %30.12 in10.0 miWest (270°)11.5 mph25.3 mphClear
8:15 AM34.2 °F6.1 °F31 %30.15 in10.0 miWest (270°)15.0 mph28.8 mphClear
8:35 AM34.3 °F7.7 °F33 %30.17 in10.0 miWest (260°)20.7 mph35.7 mphClear
8:55 AM34.9 °F8.1 °F33 %30.19 in10.0 miWest (260°)29.9 mph39.1 mphClear
9:15 AM34.2 °F9.9 °F36 %30.20 in10.0 miWest (270°)23.0 mph43.7 mphClear
9:35 AM34.7 °F10.9 °F37 %30.23 in10.0 miWest (260°)27.6 mph54.1 mphClear
9:55 AM35.2 °F11.1 °F37 %30.23 in10.0 miWSW (250°)23.0 mph43.7 mphClear
10:15 AM35.2 °F11.1 °F37 %30.23 in10.0 miWest (260°)25.3 mph43.7 mphClear
10:35 AM36.1 °F10.9 °F35 %30.23 in10.0 miWest (260°)31.1 mph44.9 mphClear
10:55 AM36.9 °F11.1 °F35 %30.24 in10.0 miWest (260°)21.9 mph38.0 mphClear
11:15 AM37.6 °F11.1 °F34 %30.24 in10.0 miWest (260°)25.3 mph36.8 mphClear
11:35 AM38.3 °F11.1 °F33 %30.23 in10.0 miWest (270°)25.3 mph36.8 mphClear
11:55 AM39.6 °F11.1 °F31 %30.22 in10.0 miWest (260°)24.2 mph39.1 mphClear
12:15 PM40.8 °F10.8 °F29 %30.20 in10.0 miWest (270°)19.6 mph31.1 mphClear
12:35 PM40.8 °F11.8 °F31 %30.21 in10.0 miWest (260°)33.4 mph40.3 mphClear
12:55 PM40.5 °F12.6 °F32 %30.21 in10.0 miWest (270°)24.2 mph40.3 mphClear
1:15 PM40.5 °F12.2 °F32 %30.21 in10.0 miWest (270°)23.0 mph33.4 mphClear
1:35 PM41.2 °F12.2 °F31 %30.19 in10.0 miWest (270°)23.0 mph31.1 mphClear
1:55 PM43.0 °F11.5 °F28 %30.19 in10.0 miWest (270°)19.6 mph27.6 mphClear
2:15 PM42.3 °F11.7 °F29 %30.18 in10.0 miWest (270°)21.9 mph29.9 mphClear
2:35 PM42.4 °F11.7 °F29 %30.19 in10.0 miWest (270°)20.7 mph26.5 mphClear
2:55 PM42.8 °F11.5 °F28 %30.19 in10.0 miWSW (250°)15.0 mph27.6 mphClear
3:15 PM41.9 °F12.2 °F30 %30.19 in10.0 miWest (260°)18.4 mph25.3 mphClear
3:35 PM42.6 °F10.8 °F27 %30.19 in10.0 miWest (260°)17.3 mph21.9 mphClear
3:55 PM42.8 °F9.7 °F26 %30.19 in10.0 miWSW (240°)17.3 mph23.0 mphClear
4:15 PM41.4 °F10.4 °F28 %30.19 in10.0 miWSW (240°)13.8 mph21.9 mphClear
4:35 PM41.0 °F8.4 °F26 %30.20 in10.0 miWSW (250°)13.8 mph19.6 mphClear
4:55 PM39.2 °F9.0 °F29 %30.20 in10.0 miWSW (250°)10.4 mph16.1 mphClear
5:15 PM37.9 °F8.2 °F29 %30.20 in10.0 miWSW (250°)12.7 mph19.6 mphClear
5:35 PM35.1 °F8.6 °F33 %30.21 in10.0 miSSW (210°)10.4 mphClear
5:55 PM35.4 °F7.7 °F32 %30.22 in10.0 miWest (260°)5.8 mphClear
6:15 PM34.5 °F7.7 °F33 %30.22 in10.0 miWest (260°)5.8 mphClear
6:35 PM34.0 °F7.9 °F34 %30.23 in10.0 miSouth (190°)3.5 mphClear
7:15 PM33.6 °F7.2 °F33 %30.24 in10.0 miWSW (250°)10.4 mphClear
7:35 PM33.1 °F7.5 °F34 %30.24 in10.0 miSW (230°)9.2 mph17.3 mphClear
8:15 PM33.8 °F7.5 °F33 %30.25 in10.0 miWSW (250°)11.5 mphClear
8:35 PM34.5 °F8.2 °F33 %30.25 in10.0 miWSW (240°)16.1 mph28.8 mphClear
9:15 PM33.8 °F11.7 °F40 %30.26 in10.0 miWest (260°)18.4 mph21.9 mphClear
9:35 PM33.6 °F12.2 °F41 %30.25 in10.0 miWest (270°)17.3 mph23.0 mphClear
9:55 PM33.6 °F12.0 °F41 %30.25 in10.0 miWSW (240°)18.4 mph25.3 mphClear
10:15 PM33.3 °F12.0 °F41 %30.24 in10.0 miWSW (240°)17.3 mph27.6 mphClear
10:35 PM33.4 °F11.1 °F40 %30.25 in10.0 miWSW (240°)18.4 mph28.8 mphClear
11:15 PM32.0 °F12.2 °F44 %30.25 in10.0 miWSW (240°)12.7 mph20.7 mphClear
11:35 PM32.0 °F11.7 °F43 %30.25 in10.0 miSW (230°)9.2 mphClear
Hourly data recorded from KANK, located miles away from Poncha Springs, Colorado







STORIES FROM OUR PARTNERS